Location: Estavannens-Dessous
(46.5604°N, 7.1025°E)
Time: 14:18:17
(UTC+00:00)

Daily predictions for brighter satellites

Satellite Brightness Start Highest point End
(mag) Time Altitude Azimuth Time Altitude Azimuth Time Altitude Azimuth
Cosmos 1980 3.8 18:17:22 10° SSW 18:23:03 89° WNW 18:28:47 10° NNE
SL-8 R/B 3.9 18:19:03 10° W 18:23:49 72° N 18:28:36 10° ENE
STARLINK-1109 3.6 18:19:55 10° WNW 18:24:00 74° NNE 18:28:05 10° ESE
ERBS 3.7 18:22:16 10° W 18:25:27 38° NNW 18:28:39 10° NE
STARLINK-1246 3.7 18:21:37 10° SW 18:25:38 57° SE 18:29:39 10° ENE
CZ-2D R/B 4.1 18:23:38 10° S 18:27:23 55° W 18:31:09 10° NNW
Cosmos 1766 3.3 18:24:29 10° S 18:28:26 68° E 18:32:25 10° NNE
STARLINK-1091 3.6 18:24:44 10° WNW 18:28:49 79° NNE 18:32:54 10° ESE
Orbus 7S? 3.7 18:26:36 10° WNW 18:29:33 38° SW 18:31:51 10° SSE
STARLINK-67 3.5 18:28:32 10° W 18:31:01 42° NNW 18:33:31 10° NE
STARLINK-1066 3.2 18:28:02 10° WNW 18:31:10 67° SSW 18:34:18 10° SE
STARLINK-1201 3.0 18:28:09 10° WSW 18:31:25 85° NNW 18:34:42 10° ENE
STARLINK-1081 3.1 18:28:31 10° WNW 18:31:37 66° SSW 18:34:43 10° SE
ADEOS Rocket 3.4 18:24:57 10° NNE 18:31:49 81° WNW 18:37:55 10° SSW
STARLINK-1070 3.1 18:28:58 10° WNW 18:32:04 65° SW 18:35:09 10° SE
USA 234 3.9 18:26:25 10° ENE 18:32:17 34° SE 18:38:07 10° SSW
STARLINK-1069 3.2 18:29:23 10° WNW 18:32:31 65° SW 18:35:38 10° SE
STARLINK-1224 3.6 18:28:48 10° SW 18:32:49 63° SE 18:36:51 10° ENE
STARLINK-1085 3.2 18:29:50 10° WNW 18:32:58 64° SSW 18:36:05 10° SE
STARLINK-1086 3.2 18:30:20 10° WNW 18:33:25 63° SW 18:36:31 10° SE
STARLINK-1095 3.2 18:30:47 10° WNW 18:33:53 63° SSW 18:36:57 10° SE
Cosmos 1626 2.7 18:30:30 10° N 18:33:58 36° ENE 18:37:24 10° SE
STARLINK-1077 3.2 18:31:13 10° WNW 18:34:19 62° SW 18:37:23 10° SE
STARLINK-1203 3.5 18:30:29 10° SW 18:34:27 70° SE 18:38:25 10° ENE
STARLINK-1075 3.2 18:31:40 10° WNW 18:34:47 62° SSW 18:37:51 10° SE
H-2A R/B 2.3 18:30:02 10° SE 18:35:10 52° ENE 18:40:11 10° N
STARLINK-1093 3.3 18:32:05 10° WNW 18:35:12 62° SW 18:38:19 10° SE
STARLINK-1074 3.3 18:32:32 10° WNW 18:35:40 61° SW 18:38:47 10° SE
STARLINK-1087 3.3 18:33:02 10° WNW 18:36:06 60° SW 18:39:10 10° SE
HJ-1C 3.4 18:32:53 10° SSE 18:36:12 89° SE 18:39:36 10° NNW
STARLINK-1088 3.3 18:33:29 10° WNW 18:36:34 59° SW 18:39:39 10° SE
STARLINK-1115 3.3 18:33:54 10° WNW 18:37:01 59° SW 18:40:07 10° SE
SL-16 R/B 2.5 18:31:45 10° S 18:37:04 44° ESE 18:42:24 10° NE
STARLINK-1225 3.6 18:33:25 10° SW 18:37:27 68° SE 18:41:31 10° ENE
STARLINK-1076 3.3 18:34:21 10° WNW 18:37:28 59° SW 18:40:34 10° SE
CSL-04 Rocket 4.3 18:32:28 10° S 18:37:42 59° WSW 18:42:56 10° NNW
STARLINK-1092 3.3 18:34:48 10° WNW 18:37:55 58° SW 18:41:01 10° SE
STARLINK-1080 3.3 18:35:17 10° WNW 18:38:22 57° SW 18:41:26 10° SE
STARLINK-1090 3.3 18:35:44 10° WNW 18:38:49 57° SW 18:41:52 10° SE
STARLINK-1072 3.6 18:35:02 10° WNW 18:39:06 90° SSW 18:43:08 10° ESE
STARLINK-1104 4.5 18:35:15 10° WNW 18:39:12 41° NNE 18:43:08 10° E
STARLINK-1089 3.4 18:36:11 10° WNW 18:39:15 56° SW 18:42:19 10° SE
Cosmos 2333 Rocket 4.3 18:34:30 10° WSW 18:39:29 31° NW 18:44:30 10° NNE
STARLINK-1107 3.4 18:36:39 10° WNW 18:39:43 56° SW 18:42:46 10° SE
SL-08 RB Rocket 4.5 18:35:50 10° SE 18:39:51 33° ENE 18:43:56 10° N
Resurs 01 Rocket 3.3 18:39:01 10° E 18:41:47 17° ENE 18:44:34 10° NNE
STARLINK-1230 3.5 18:38:08 10° SW 18:42:12 73° SE 18:46:16 10° ENE
STARLINK-1096 3.6 18:39:24 10° WNW 18:43:27 85° SSW 18:47:19 11° ESE
STARLINK-1144 4.4 18:40:15 10° WNW 18:44:13 42° NNE 18:47:59 11° E
STARLINK-1233 3.3 18:41:45 10° WSW 18:44:51 65° NNW 18:48:00 10° ENE
STARLINK-1212 3.3 18:42:13 10° WSW 18:45:20 64° NNW 18:48:27 10° ENE
STARLINK-1105 3.3 18:42:39 10° WSW 18:45:46 64° NNW 18:48:53 10° ENE
FREGAT/IRIS 2.7 18:43:12 10° SSE 18:45:49 44° ENE 18:48:27 10° N
STARLINK-1206 3.3 18:43:10 10° WSW 18:46:15 63° NNW 18:49:21 10° NE
STARLINK-1247 3.3 18:43:35 10° WSW 18:46:41 63° NNW 18:49:47 10° NE
STARLINK-1243 3.5 18:42:56 10° SW 18:47:00 79° SSE 18:51:05 10° ENE
STARLINK-1227 3.3 18:44:01 10° WSW 18:47:07 62° NNW 18:50:15 10° NE
STARLINK-1218 3.3 18:44:30 10° WSW 18:47:35 62° NNW 18:50:42 10° NE
Cosmos 1302 Rocket 4.2 18:42:28 10° NNW 18:47:40 55° ENE 18:52:51 10° SE
Abrixas rocket 3.6 18:45:47 10° S 18:47:52 18° SE 18:49:07 14° ESE
STARLINK-1226 3.3 18:44:57 10° WSW 18:48:02 61° NNW 18:51:08 10° NE
STARLINK-1254 3.3 18:45:23 10° WSW 18:48:29 61° NNW 18:51:36 10° NE
STARLINK-1079 3.6 18:44:27 10° WNW 18:48:29 79° SSW 18:52:11 12° SE
STARLINK-1215 3.3 18:45:52 10° WSW 18:48:57 60° NNW 18:52:03 10° NE
STARLINK-1103 4.4 18:45:13 10° WNW 18:49:12 44° NNE 18:52:45 12° E
STARLINK-1231 3.4 18:46:18 10° WSW 18:49:23 60° NNW 18:52:29 10° NE
STARLINK-1232 3.4 18:47:13 10° WSW 18:50:18 59° NNW 18:53:23 10° NE
Cosmos 1953 3.8 18:47:37 10° SE 18:50:20 18° E 18:53:03 10° NE
Cosmos 304 Rocket 4.0 18:45:35 10° NNW 18:50:23 76° WSW 18:55:08 10° SSE
STARLINK-1217 3.4 18:47:40 10° WSW 18:50:45 59° NNW 18:53:50 10° NE
Cosmos 1709 Rocket 4.0 18:44:43 10° N 18:50:55 64° ENE 18:56:59 10° SSE
SeaSat 1 4.0 18:46:35 10° NNE 18:51:08 39° NW 18:55:41 10° WSW
STARLINK-1208 3.4 18:48:05 10° WSW 18:51:11 59° NNW 18:54:18 10° NE
STARLINK-1229 3.4 18:48:34 10° WSW 18:51:39 58° NNW 18:54:44 10° NE
STARLINK-1236 3.5 18:47:42 10° SW 18:51:47 84° SE 18:55:52 10° ENE
STARLINK-1271 3.4 18:49:01 10° WSW 18:52:05 57° NNW 18:55:11 10° NE
STARLINK-1270 3.4 18:49:29 10° WSW 18:52:34 57° NNW 18:55:39 10° NE
STARLINK-1116 3.7 18:48:53 10° WNW 18:52:55 74° SSW 18:56:26 13° SE
STARLINK-1154 3.5 18:49:56 10° WSW 18:53:01 57° NNW 18:56:05 10° NE
STARLINK-1197 3.5 18:50:50 10° WSW 18:53:55 56° NNW 18:57:00 10° NE
Cosmos 1269 Rocket 4.0 18:48:41 10° SSW 18:53:56 72° ESE 18:59:14 10° NNE
STARLINK-1101 4.3 18:50:12 10° WNW 18:54:12 45° NNE 18:57:32 14° E
MONITOR-E 3.8 18:51:44 10° SSE 18:54:19 55° ENE 18:56:56 10° N
STARLINK-1189 3.5 18:51:18 10° WSW 18:54:22 55° NNW 18:57:27 10° NE
STARLINK-1187 3.7 18:52:10 10° WSW 18:55:14 50° NNW 18:58:19 10° NE
STARLINK-1188 3.5 18:52:12 10° WSW 18:55:16 55° NNW 18:58:21 10° NE
STARLINK-1198 3.5 18:52:13 10° WSW 18:55:16 55° NNW 18:58:21 10° NE
STARLINK-1235 3.9 18:52:55 10° W 18:55:57 46° NNW 18:59:01 10° NE
STARLINK-1199 3.6 18:54:09 10° WSW 18:57:13 53° NNW 19:00:20 10° NE
STARLINK-1191 3.6 18:54:36 10° WSW 18:57:40 53° NNW 19:00:47 10° NE
STARLINK-1210 3.6 18:55:04 10° WSW 18:58:08 53° NNW 19:01:14 10° NE
STARLINK-1221 3.6 18:55:30 10° WSW 18:58:35 52° NNW 19:01:41 10° NE
STARLINK-1219 3.6 18:55:58 10° WSW 18:59:02 52° NNW 19:02:09 10° NE
STARLINK-1102 4.2 18:55:10 10° WNW 18:59:12 47° NNE 19:02:19 16° E
STARLINK-1222 3.6 18:56:25 10° WSW 18:59:30 52° NNW 19:02:35 10° NE
STARLINK-1211 3.6 18:56:53 10° WSW 18:59:56 51° NNW 19:03:02 10° NE
ISS -2.8 18:57:05 10° WNW 19:00:16 39° NNE 19:02:41 15° ENE
STARLINK-1214 3.7 18:57:19 10° WSW 19:00:24 51° NNW 19:03:28 10° NE
STARLINK-1245 3.7 18:57:49 10° WSW 19:00:51 50° NNW 19:03:54 10° NE
STARLINK-1238 3.7 18:58:11 10° WSW 19:01:16 50° NNW 19:04:21 10° NE
STARLINK-1269 3.6 18:57:31 10° WSW 19:01:37 85° NNW 19:05:42 10° ENE
Cosmos 1455 Rocket 3.2 18:57:23 10° SSW 19:01:44 78° W 19:06:07 10° N
Cosmos 2251 Rocket 4.5 18:57:24 10° SSE 19:01:44 25° E 19:06:05 10° NE
Cosmos 2297 3.7 18:56:24 10° NNW 19:02:07 88° ENE 19:07:49 10° SSE
STARLINK-1094 3.8 18:58:09 10° WNW 19:02:10 64° SW 19:05:21 16° SE
STARLINK-1205 3.7 18:59:07 10° W 19:02:11 49° NNW 19:05:14 10° NE
STARLINK-1204 3.7 18:59:37 10° W 19:02:39 49° NNW 19:05:42 10° NE
BREEZE-M DEB (TANK) 4.4 18:54:01 10° W 19:02:40 61° N 19:05:20 15° E
Cosmos 2084 Rocket 4.3 18:59:55 10° NNW 19:04:06 38° NE 19:06:58 18° E
STARLINK-1111 4.1 19:00:10 10° WNW 19:04:12 49° NNE 19:07:06 18° E
STARLINK-1200 3.6 19:02:20 10° WSW 19:06:25 80° NNW 19:10:31 10° ENE
Cosmos 2237 Rocket 3.4 19:01:13 10° SW 19:06:37 47° WNW 19:12:04 10° NNE
STARLINK-1117 3.9 19:03:00 10° WNW 19:07:00 60° SW 19:10:00 17° SE
STARLINK-1073 4.1 19:05:09 10° WNW 19:09:12 52° NNE 19:11:53 20° E
CZ-2C R/B 3.4 19:04:48 10° NE 19:09:16 29° E 19:13:43 10° SSE
Cosmos 1626 Rocket 3.5 19:05:22 10° N 19:09:46 68° ENE 19:14:06 10° SSE
STARLINK-1192 3.7 19:07:06 10° WSW 19:11:11 76° NNW 19:15:17 10° ENE
STARLINK-1078 4.0 19:07:27 10° WNW 19:11:26 55° SW 19:14:17 18° SE
BREEZE-M DEB (TANK) 4.5 19:02:17 10° WNW 19:12:32 37° SW 19:15:44 10° SSE
Cosmos 2278 Rocket 4.5 19:08:14 10° NW 19:12:43 25° WSW 19:17:11 10° SSW
STARLINK-1121 4.0 19:10:07 10° WNW 19:14:11 54° NNE 19:16:39 22° E
ARGOS 3.2 19:10:07 10° SSE 19:15:32 87° WSW 19:20:59 10° NNW
Cosmos 292 Rocket 4.3 19:11:23 10° N 19:15:55 40° ENE 19:18:32 22° ESE
STARLINK-1244 3.8 19:12:02 10° WSW 19:16:07 71° NNW 19:20:08 10° ENE
STARLINK-1108 4.1 19:12:20 10° WNW 19:16:17 51° SW 19:18:58 19° SSE
Cosmos 1602 Rocket 3.6 19:13:20 10° N 19:17:47 64° E 19:21:45 13° SSE
STARLINK-1106 3.9 19:15:04 10° WNW 19:19:10 57° NNE 19:21:25 25° E
STARLINK-1138 3.9 19:16:39 10° WSW 19:20:43 67° NNW 19:24:34 11° ENE
STARLINK-1071 4.3 19:17:01 10° WNW 19:20:55 47° SW 19:23:26 20° SSE
STARLINK-1234 4.4 19:19:06 10° W 19:21:49 32° NNW 19:24:04 13° NE
USA 186 2.7 19:19:31 10° S 19:22:52 51° W 19:26:12 10° NNW
MOS 1 Rocket 4.0 19:18:47 10° NNE 19:23:43 40° E 19:28:47 10° SSE
STARLINK-1112 3.8 19:20:04 10° WNW 19:24:11 60° NNE 19:26:14 27° E
STARLINK-1110 4.4 19:21:29 10° WNW 19:25:22 44° SW 19:27:43 21° SSE
STARLINK-1143 4.0 19:21:34 10° WSW 19:25:38 64° NNW 19:29:16 13° ENE
MetOp-A 4.1 19:21:25 13° SSE 19:26:14 68° ENE 19:31:34 10° N
STARLINK-1124 4.4 19:22:53 10° WNW 19:26:50 43° SW 19:29:13 21° SSE
CZ-2C R/B 3.4 19:23:00 10° S 19:28:00 63° WSW 19:32:50 10° NNW
IRIDIUM 114 4.3 19:23:13 10° N 19:28:24 60° E 19:32:51 14° SSE
STARLINK-1128 3.8 19:25:03 10° WNW 19:29:11 64° NNE 19:31:01 31° E
Cosmos 1544 Rocket 4.4 19:25:03 10° SSW 19:29:21 54° WNW 19:33:43 10° N
Cosmos 1470 2.8 19:27:28 10° SSW 19:31:20 77° W 19:35:15 10° N
Cosmos 1437 4.0 19:29:25 10° NNE 19:31:25 24° NE 19:31:25 24° NE
STARLINK-1241 4.1 19:29:58 10° WSW 19:33:58 57° NNW 19:37:13 15° NE
STARLINK-1113 3.7 19:30:02 10° WNW 19:34:10 68° NNE 19:35:47 35° E
SPOT 3 Rocket 3.5 19:29:48 12° SSE 19:34:41 87° ENE 19:39:57 10° NNW
Cosmos 1825 Rocket 4.1 19:32:37 10° N 19:36:48 40° ENE 19:37:53 34° ESE
IRIDIUM 103 4.2 19:32:22 10° N 19:37:36 73° E 19:42:00 15° S
STARLINK-1239 4.2 19:34:56 10° W 19:38:55 55° NNW 19:41:56 17° NE
STARLINK-1119 3.6 19:35:00 10° WNW 19:39:09 72° NNE 19:40:34 39° E
Cosmos 2369 Rocket 2.3 19:34:52 10° NNW 19:40:32 60° ENE 19:43:14 30° SE
SJ-6B 3.8 19:37:00 10° S 19:40:57 49° W 19:44:59 10° NNW
Cosmos 1726 2.3 19:42:57 45° E 19:43:04 46° E 19:46:41 10° NNE
STARLINK-1240 4.3 19:39:41 10° W 19:43:39 52° NNW 19:46:29 18° NE
STARLINK-1114 3.6 19:40:01 10° WNW 19:44:10 76° NNE 19:45:24 44° ESE
Cosmos 1758 3.9 19:41:17 10° SSW 19:45:20 60° W 19:49:24 10° N
Aureole 2 Rocket 2.4 19:42:09 10° NNW 19:45:38 60° ENE 19:45:56 56° E
Cosmos 2263 4.5 19:41:03 10° NNW 19:46:32 50° ENE 19:48:36 34° ESE
Cosmos 1758 Rocket 3.5 19:42:18 10° N 19:46:38 59° ENE 19:47:54 41° SE
NOSS 3-3 (A) 4.1 19:42:46 10° S 19:48:18 47° ESE 19:54:29 10° NE
NOSS 3-3 (C) 4.1 19:42:53 10° S 19:48:25 47° ESE 19:54:34 10° NE
STARLINK-1216 4.3 19:44:28 10° W 19:48:25 50° NNW 19:51:02 19° NE
STARLINK-1130 (DARKSAT) 3.5 19:44:58 10° WNW 19:49:08 81° NNE 19:50:10 50° ESE
CZ-2C R/B 3.9 19:44:39 10° N 19:49:26 77° WNW 19:54:06 10° SSW
Cosmos 1953 Rocket 4.0 19:48:53 10° N 19:53:06 40° ENE 19:53:21 40° E
STARLINK-1237 4.4 19:49:16 10° W 19:53:12 48° NNW 19:55:38 21° NE
Terra 3.8 19:53:53 14° NE 19:53:53 14° NE 19:56:14 10° NNE
STARLINK-1084 3.5 19:49:56 10° WNW 19:54:06 86° NNE 19:54:56 56° ESE
Cosmos 2184 Rocket 3.9 19:49:26 10° N 19:55:49 76° E 19:59:37 25° SSE
IRIDIUM 106 4.4 19:50:39 10° N 19:55:53 79° W 20:00:12 15° S
Spot 2 Rocket 3.9 19:55:41 39° ESE 19:56:50 46° ENE 20:01:43 10° N
STARLINK-1098 3.5 19:54:56 10° WNW 19:59:05 88° SW 19:59:43 63° SE
Cosmos 1606 Rocket 3.6 19:59:07 51° ESE 19:59:16 52° E 20:03:36 10° NNE
SPOT 1/Viking Rocket 4.3 20:00:51 33° E 20:01:24 34° ENE 20:06:05 10° N
Cosmos 1943 Rocket 2.2 19:56:24 10° NNW 20:01:56 75° WSW 20:04:34 32° SSE
Meteor 1-21 Rocket 4.3 19:56:45 10° NNW 20:02:19 72° W 20:06:08 20° S
Cosmos 1943 3.3 20:01:04 29° SSE 20:03:33 49° ESE 20:09:00 10° NE
STARLINK-1123 3.4 19:59:54 10° WNW 20:04:03 83° SW 20:04:30 70° SE
Meteor 2-10 4.0 20:00:44 12° S 20:05:42 82° E 20:11:16 10° NNE
SL-8 R/B 3.6 20:01:46 10° WNW 20:06:35 83° NNE 20:07:34 56° E
Resurs 1-3 4.2 20:05:32 24° SSW 20:07:56 54° W 20:12:16 10° NNW
STARLINK-1097 3.5 20:04:53 10° WNW 20:09:02 78° SSW 20:09:16 74° S
ATLAS 2AS CENTAUR R/B 3.3 20:04:09 10° NW 20:11:37 48° NE 20:14:22 34° E
STARLINK-1099 3.6 20:09:52 10° WNW 20:14:01 72° SSW 20:14:04 72° SSW
H-2A R/B 4.2 20:10:39 10° SW 20:14:51 23° W 20:18:58 10° NW
USA 234 3.3 20:09:09 10° NE 20:15:43 81° NW 20:22:15 10° WSW
USA 245 4.0 20:15:17 55° ESE 20:16:01 62° ENE 20:21:47 10° N
Cosmos 2154 Rocket 3.9 20:10:32 10° N 20:16:55 72° E 20:18:59 44° SSE
Resurs 01 Rocket 2.0 20:16:28 40° SSW 20:17:50 61° W 20:22:13 10° NNW
DMSP B5D2-2 4.5 20:13:46 10° N 20:18:55 62° WNW 20:24:04 10° SSW
STARLINK-1104 3.7 20:14:52 10° WNW 20:18:51 66° SW 20:18:51 66° SW
Cosmos 1328 3.9 20:16:52 10° N 20:20:25 67° NNE 20:20:25 67° NNE
SL-16 R/B 3.8 20:16:11 10° WSW 20:21:18 34° NW 20:26:27 10° NNE
Cosmos 2228 2.9 20:22:39 78° NNE 20:22:39 78° NNE 20:26:44 10° N
Cosmos 967 Rocket 4.4 20:17:08 10° SSW 20:23:32 74° ESE 20:30:01 10° NE
STARLINK-1144 3.9 20:19:51 10° WNW 20:23:38 59° WSW 20:23:38 59° WSW
Cosmos 1953 3.7 20:23:07 12° SW 20:26:26 37° WNW 20:30:10 10° N
STARLINK-1103 4.1 20:24:50 10° WNW 20:28:25 53° WSW 20:28:25 53° WSW
Cosmos 962 Rocket 4.5 20:25:02 10° N 20:31:09 58° ENE 20:31:44 56° E
Nadezhda 1 Rocket 4.0 20:29:47 30° S 20:33:14 89° WNW 20:39:40 10° N
STARLINK-1101 4.4 20:29:50 10° WNW 20:33:11 46° WSW 20:33:11 46° WSW
SL-8 Rocket 4.4 20:31:02 10° N 20:37:02 44° ENE 20:37:02 44° ENE
ISS -1.8 20:33:54 10° WNW 20:35:39 28° WNW 20:35:39 28° WNW
Cosmos 2058 Rocket 4.0 20:42:37 40° NNE 20:42:37 40° NNE 20:45:34 10° NNE
MetOp-B 4.3 20:40:10 53° SSW 20:41:15 67° WSW 20:46:37 10° NNW
Cosmos 1603 3.9 20:37:10 10° SW 20:42:47 70° WNW 20:48:25 10° NNE
SPOT 5 3.8 20:44:25 34° NNE 20:44:25 34° NNE 20:47:13 10° N
Cosmos 2251 Rocket 4.4 20:38:31 10° SW 20:43:42 49° WNW 20:48:57 10° NNE
Cosmos 1703 4.2 20:40:36 10° NNW 20:43:49 46° WNW 20:43:49 46° WNW
IGS 5A 4.3 20:49:02 46° NNW 20:49:02 46° NNW 20:52:02 10° NNW
ERS-1 Rocket 3.2 20:48:38 58° NNE 20:48:38 58° NNE 20:52:56 10° N
Landsat 7 4.0 20:49:40 71° NNW 20:49:40 71° NNW 20:53:57 10° NNW
CZ-2C R/B 3.8 20:44:51 10° N 20:49:41 41° WNW 20:54:29 10° SW
Cosmos 1656 Rocket 3.8 20:56:28 10° NNW 21:02:03 69° WSW 21:02:03 69° WSW
Aureole 1 Rocket 4.2 21:01:50 47° SSW 21:04:23 85° ESE 21:11:01 10° NNE
COSMOS 2455 3.3 21:09:47 10° NNW 21:15:09 53° NNE 21:15:09 53° NNE
Cosmos 2341 Rocket 4.1 21:16:12 10° NNW 21:22:30 68° W 21:22:43 67° WSW
Cosmos 2369 Rocket 3.9 21:19:43 10° NW 21:24:05 23° W 21:25:03 22° WSW
NOSS 3-4 (A) 3.7 21:23:08 10° NW 21:30:09 81° SW 21:30:09 81° SW
NOSS 3-4 (C) 3.7 21:23:14 10° NW 21:30:15 82° SW 21:30:15 82° SW
Terra 3.2 21:32:46 36° NNW 21:32:46 36° NNW 21:35:35 10° NNW
Cosmos 2218 Rocket 4.4 21:43:27 10° NNW 21:48:36 58° NW 21:48:36 58° NW
USA 234 4.3 21:52:14 10° NE 21:58:16 41° NNW 22:04:19 10° W
ATLAS 2AS CENTAUR R/B 3.4 21:55:29 10° NW 22:01:48 48° W 22:01:48 48° W
Cosmos 1697 Rocket 4.3 22:06:48 10° NNW 22:10:12 27° NNE 22:10:12 27° NNE
Mayak 1.7 22:15:06 10° N 22:15:32 13° N 22:15:32 13° N
Cosmos 1980 Rocket 4.1 22:32:24 10° N 22:35:28 24° NNE 22:35:28 24° NNE
CZ-4C R/B 3.9 22:31:45 10° NNW 22:37:59 35° NE 22:38:44 35° NE
USA 234 4.5 23:34:33 10° ENE 23:40:24 36° N 23:46:16 10° WNW
SL-16 R/B 4.1 23:52:44 27° NE 23:52:44 27° NE 23:57:28 10° N
